Wales, AK

2:16 AM AKST on February 22, 2017 (GMT -0900)
Tin City LRRS

Weather History for PATC - December, 2013

Change the Weather History Date:

Saturday, December 28, 2013

  Actual Average Record
Temperature  
Mean Temperature -10 °F -  
Max Temperature -5 °F 10 °F 125 °F (1996)
Min Temperature -15 °F 0 °F -20 °F (1999)
Degree Days  
Heating Degree Days 75    
Moisture  
Dew Point -13 °F    
Average Humidity 84    
Maximum Humidity 92    
Minimum Humidity 77    
Precipitation  
Precipitation 0.00 in - - ()
Sea Level Pressure  
Sea Level Pressure 30.07 in    
Wind  
Wind Speed 26 mph (NNE)    
Max Wind Speed 32 mph    
Max Gust Speed 41 mph    
Visibility 5 miles    
Events Fog , Snow    
Averages and records for this station are not official NWS values.
T = Trace of Precipitation, MM = Missing Value Source: NWS Daily Summary

Daily Weather History Graph

Daily Weather History Graph

Search for Another Location

Airport or City:

Trip Planner

Search our weather history database for the weather conditions in past years. The results will help you decide how hot, cold, wet, or windy it might be!

Date:

Astronomy

Dec. 28, 2013 Rise Set
Actual Time 12:33 PM AKST 3:53 PM AKST
Civil Twilight 11:01 AM AKST 5:25 PM AKST
Nautical Twilight 9:47 AM AKST 6:40 PM AKST
Astronomical Twilight 8:43 AM AKST 7:43 PM AKST
Moon 7:07 AM AKST (12/28) 2:06 PM AKST (12/28)
Length of Visible Light 6h 23m
Length of Day
3h 20m
Waning Crescent, 17% of the Moon is Illuminated
Dec 28
Waning Crescent
Jan 1
New
Jan 7
First Quarter
Jan 15
Full
Jan 23
Last Quarter

Hourly Weather History & Observations

Time (AKST) Temp. Windchill Dew Point Humidity Pressure Visibility Wind Dir Wind Speed Gust Speed Precip Events Conditions
12:55 AM -13.4 °F -44.8 °F -17.3 °F 82% 30.16 in 10.0 mi NNE 32.2 mph 41.4 mph N/A   Clear
1:55 AM -14.4 °F -46.3 °F -18.8 °F 81% 30.15 in 10.0 mi NNE 32.2 mph - N/A   Clear
3:55 AM -13.4 °F -43.1 °F -17.3 °F 82% 30.15 in 10.0 mi NNE 27.6 mph - N/A   Clear
4:55 AM -13.5 °F -43.8 °F -17.5 °F 82% 30.14 in 10.0 mi NE 28.8 mph - N/A   Clear
5:55 AM -15.2 °F -42.3 °F -19.1 °F 82% 30.15 in 10.0 mi NE 20.7 mph - N/A   Clear
6:55 AM -11.9 °F -40.2 °F -15.5 °F 84% 30.14 in 10.0 mi NNE 25.3 mph - N/A   Clear
7:55 AM -12.8 °F -40.3 °F -16.4 °F 84% 30.13 in 10.0 mi NNE 23.0 mph - N/A   Clear
8:55 AM -12.8 °F -41.4 °F -16.2 °F 85% 30.11 in 10.0 mi NE 25.3 mph - N/A   Clear
9:55 AM -12.8 °F -39.8 °F -16.8 °F 82% 30.12 in 10.0 mi NE 21.9 mph - N/A   Clear
10:55 AM -11.6 °F -37.5 °F -16.2 °F 80% 30.11 in 10.0 mi NE 20.7 mph - N/A   Clear
11:55 AM -9.2 °F -35.5 °F -13.7 °F 81% 30.09 in 10.0 mi NE 23.0 mph - N/A   Clear
12:28 PM -9.4 °F -34.7 °F -14.8 °F 77% 30.09 in 4.0 mi NE 20.7 mph - N/A   Mostly Cloudy
12:48 PM -9.4 °F -35.2 °F -11.2 °F 92% 30.09 in 1.5 mi NE 21.9 mph - N/A   Mostly Cloudy
12:55 PM -8.1 °F -33.0 °F -12.1 °F 83% 30.10 in 1.0 mi NNE 20.7 mph - N/A   Mostly Cloudy
1:08 PM -5.8 °F -31.0 °F -9.4 °F 84% 30.09 in 0.8 mi NNE 23.0 mph - N/A Snow Light Snow
1:28 PM -5.8 °F -32.4 °F -7.6 °F 92% 30.09 in 1.5 mi NNE 26.5 mph - N/A Snow Light Snow Showers
1:48 PM -5.8 °F -31.0 °F -9.4 °F 84% 30.08 in 0.8 mi NNE 23.0 mph - N/A Snow Light Snow Showers
1:55 PM -5.8 °F -31.0 °F -8.9 °F 87% 30.08 in 0.5 mi NNE 23.0 mph - N/A Fog , Snow Light Snow Showers
2:08 PM -5.8 °F -31.0 °F -9.4 °F 84% 30.09 in 0.5 mi NNE 23.0 mph - N/A Fog , Snow Light Snow Showers
2:28 PM -5.8 °F -30.5 °F -9.4 °F 84% 30.09 in 1.2 mi NNE 21.9 mph - N/A   Mostly Cloudy
2:48 PM -5.8 °F -30.5 °F -9.4 °F 84% 30.08 in 2.5 mi NNE 21.9 mph - N/A   Mostly Cloudy
2:55 PM -6.2 °F -31.0 °F -9.4 °F 86% 30.08 in 2.5 mi NNE 21.9 mph - N/A   Mostly Cloudy
3:08 PM -5.8 °F -30.5 °F -9.4 °F 84% 30.08 in 1.8 mi NNE 21.9 mph - N/A   Mostly Cloudy
3:28 PM -7.6 °F -33.4 °F -9.4 °F 92% 30.07 in 9.0 mi NNE 23.0 mph - N/A   Mostly Cloudy
3:55 PM -7.1 °F -32.1 °F -10.3 °F 86% 30.07 in 10.0 mi NNE 21.9 mph - N/A   Mostly Cloudy
4:29 PM -7.6 °F -31.7 °F -11.2 °F 84% 30.06 in 10.0 mi NNE 19.6 mph - N/A   Overcast
4:55 PM -7.4 °F -33.6 °F -10.7 °F 86% 30.06 in 4.0 mi NNE 24.2 mph - N/A   Mostly Cloudy
5:29 PM -7.6 °F -35.7 °F -11.2 °F 84% 30.04 in 1.8 mi NNE 28.8 mph - N/A   Mostly Cloudy
5:49 PM -7.6 °F -36.1 °F -11.2 °F 84% 30.03 in 1.2 mi NNE 29.9 mph - N/A   Mostly Cloudy
5:55 PM -7.8 °F -36.4 °F -11.0 °F 86% 30.03 in 1.0 mi NNE 29.9 mph - N/A   Mostly Cloudy
6:09 PM -7.6 °F -36.6 °F -11.2 °F 84% 30.02 in 0.8 mi NNE 31.1 mph - N/A Snow Light Snow
6:29 PM -7.6 °F -36.6 °F -11.2 °F 84% 30.02 in 1.0 mi NNE 31.1 mph - N/A Snow Light Snow
6:49 PM -7.6 °F -36.1 °F -11.2 °F 84% 30.01 in 1.2 mi NNE 29.9 mph - N/A Snow Light Snow
6:55 PM -8.1 °F -37.3 °F -11.4 °F 86% 30.01 in 1.2 mi NNE 31.1 mph - N/A Snow Light Snow
7:09 PM -7.6 °F -36.1 °F -11.2 °F 84% 30.02 in 1.5 mi NNE 29.9 mph - N/A Snow Light Snow
7:29 PM -7.6 °F -35.7 °F -11.2 °F 84% 30.03 in 9.0 mi NNE 28.8 mph - N/A   Clear
7:55 PM -8.5 °F -36.0 °F -11.9 °F 85% 30.03 in 7.0 mi NNE 26.5 mph - N/A   Clear
8:49 PM -9.4 °F -36.3 °F -13.0 °F 84% 30.03 in 2.5 mi NNE 24.2 mph - N/A Snow Light Snow
8:55 PM -8.9 °F -35.6 °F -12.3 °F 85% 30.03 in 3.0 mi NNE 24.2 mph - N/A Snow Light Snow
9:49 PM -9.4 °F -35.8 °F -13.0 °F 84% 30.04 in 2.5 mi NNE 23.0 mph - N/A Snow Light Snow
9:55 PM -8.9 °F -35.1 °F -12.3 °F 85% 30.04 in 2.5 mi NNE 23.0 mph - N/A Snow Light Snow
10:55 PM -9.6 °F -35.5 °F -13.2 °F 84% 30.03 in 2.5 mi NNE 21.9 mph - N/A Snow Light Snow Showers
11:09 PM -9.4 °F -35.2 °F -13.0 °F 84% 30.03 in 3.0 mi NNE 21.9 mph - N/A Snow Light Snow Showers
11:49 PM -9.4 °F -35.2 °F -13.0 °F 84% 30.03 in 8.0 mi NNE 21.9 mph - N/A   Clear
11:55 PM -10.1 °F -36.2 °F -13.5 °F 85% 30.03 in 7.0 mi NNE 21.9 mph - N/A   Clear